カタログに戻る

SAR LUPE 1

運用中軍事PO
NORAD 29658·PAYLOAD·🇩🇪 Germany

打ち上げ Dec 19, 2006 から Plesetsk Cosmodrome

Loading…

次のパス (今後24時間)

TLE

経年Source: Mike McCants

元期: Sep 5, 2026, 19:14 UTC

1 29658U 06060A   26248.80197491 0.00000000  00000-0  00000-0 0    06
2 29658  98.1129 287.7795 0002000 290.5808  69.4190 15.27404806    07

AllMySatでSAR LUPE 1をリアルタイム追跡

Download on the App Store